Starlink 33894

operational
NORAD ID: 63697 Int'l Des: 2025-087 Owner: SPXS Country: US Constellation: starlink
LEOCIRCULAR

About Starlink 33894

Description loading...

Live Position

Loading 3D Globe...

Upcoming Passes

Altitude History

Altitude vs Time

uPlot chart will show altitude changes over time

Two-Line Element Set

1 63697U 25087A 26033.36218395 .00030551 00000-0 10392-2 0 9995
2 63697 53.1620 23.4552 0001376 84.4791 275.6367 15.30204431 43793
Epoch: Feb 2, 2026 • Age: 18 hours

Current Status

Altitude 480.7 km
Velocity 7.63 km/s
Sub-Earth Point 53.22°N, 62.75°W
Launch Date Apr 28, 2025
Age 0.7 years
Type internet

Technical Details

Classification Payload
Mass 575.00 kg
Dry Mass 530.00 kg
Total Mass 575.00 kg
Length 0.30 m
Diameter 4.10 m
Span 29.00 m
Shape Box + pan
Manufacturer SPXS
Bus Type Starlink V2MO
Phase Status In Orbit
Owner/State SPXS/US

Large Constellations

Loading constellations...